Погода в Ипсуиче

Великобритания     52˚03′30″N   1˚11′41″E
темп.,
°C
ветер,
м/с
пор.,
м/с
влажн.,
%
обл.,
%
осадки,
мм/ч
давл.,
гПа
погр.,
м
5 декабря, сб
сб500:00+6˚ю6980100 0.1 986454
03:00+7˚ю81183100 1.0 987639
06:00+5˚юв7108687 2.4 990464
09:00+5˚ююв688758 1.3 992453
12:00+6˚ююв458369 1.4 994576
15:00+6˚юв3482100 0.2 995371
18:00+5˚вюв458073 0.3 997295
21:00+6˚вюв467896 0.0 999404
6 декабря, вс
вс600:00+6˚в348098 0.1 999257
03:00+5˚св3480100 0.1 999318
06:00+5˚ссв4681100 0.2 1000289
09:00+6˚всв357898 0.1 1001371
12:00+7˚вюв446893 0.2 1002797
15:00+6˚всв237198 0.0 1002268
18:00+4˚ссв458164 0.0 1002167
21:00+4˚ссв358366 0.0 1003175
7 декабря, пн
пн700:00+3˚с348569 0.0 100293
03:00+3˚ссз4586100 0.0 1000106
06:00+3˚ссз4688100 0.0 1000139
09:00+2˚сз4688100 0.0 999152
12:00+5˚сз4582100 0.0 998244
15:00+4˚зсз4786100 0.0 998238
18:00+2˚з359194 0.0 998148
21:00+1˚зюз4691100 0.0 999155
8 декабря, вт
вт800:00+1˚зюз359191 0.0 1001147
03:00+1˚зюз34928 0.0 1001108
06:00+1˚зюз33914 0.0 100290
09:00+2˚зюз23890 0.0 1004109
12:00+4˚юз35820 0.0 1005295
15:00+4˚юз468738 0.0 1005256
18:00+3˚юз468727 0.0 1007220
21:00+3˚юз47914 0.0 1007236
9 декабря, ср
ср900:00+2˚юз469316 0.0 1008180
03:00+2˚юз479324 0.0 1009227
06:00+2˚зюз489548 0.0 1009207
09:00+4˚зюз479492 0.0 1010240
12:00+4˚зюз358896 0.0 1009261
15:00+4˚юз358898 0.0 1009222
18:00+3˚ююз358399 0.0 1008264
21:00+5˚ю4877100 0.0 1007354